Weather History for Monroe, MI

Change the Weather History Date:

Saturday, September 21, 2013

  Actual Average Record
Temperature  
Mean Temperature 17 °C -  
Max Temperature 22 °C 22 °C 35 °C (1931)
Min Temperature 13 °C 10 °C 1 °C (1956)
Degree Days  
Heating Degree Days 2    
Growing Degree Days 13 (Base 50)    
Moisture  
Dew Point 14 °C    
Average Humidity 78    
Maximum Humidity 100    
Minimum Humidity 46    
Precipitation  
Precipitation 0.00 mm - - ()
Sea Level Pressure  
Sea Level Pressure 1007 hPa    
Wind  
Wind Speed 11 km/h (WNW)    
Max Wind Speed 32 km/h    
Max Gust Speed 42 km/h    
Visibility 14 kilometers    
Events Rain    
Averages and records for this station are not official NWS values.
T = Trace of Precipitation, MM = Missing Value Source: NWS Daily Summary

Daily Weather History Graph

Daily Weather History Graph

Search for Another Location

Airport:

Trip Planner

Search our weather history database for the weather conditions in past years. The results will help you decide how hot, cold, wet, or windy it might be!

Date:

Astronomy

Sep. 21, 2013 Rise Set
Actual Time 7:20 AM EDT 7:32 PM EDT
Civil Twilight 6:52 AM EDT 8:00 PM EDT
Nautical Twilight 6:19 AM EDT 8:32 PM EDT
Astronomical Twilight 5:46 AM EDT 9:06 PM EDT
Moon 8:39 PM EDT (9/21) 9:40 AM EDT (9/21)
Length of Visible Light 13h 07m
Length of Day
12h 11m
Waning Gibbous, 94% of the Moon is Illuminated
Sep 21
Waning Gibbous
Sep 26
Last Quarter
Oct 4
New
Oct 11
First Quarter
Oct 18
Full

Hourly Weather History & Observations

Time (EDT) Temp. Dew Point Humidity Pressure Visibility Wind Dir Wind Speed Gust Speed Precip Events Conditions
12:16 AM 22.0 °C 21.0 °C 94% 1006.7 hPa 4.8 km WNW 7.4 km/h / 2.1 m/s - N/A Rain Heavy Rain
12:36 AM 21.0 °C 20.0 °C 94% 1007.3 hPa 2.4 km West 18.5 km/h / 5.1 m/s 25.9 km/h / 7.2 m/s N/A Rain Heavy Rain
12:54 AM 20.0 °C 19.0 °C 94% 1007.0 hPa 4.8 km WNW 11.1 km/h / 3.1 m/s - N/A Rain Heavy Rain
1:14 AM 20.0 °C 19.0 °C 94% 1006.7 hPa 6.4 km WNW 5.6 km/h / 1.5 m/s - N/A Rain Rain
1:34 AM 20.0 °C 19.0 °C 94% 1006.7 hPa 11.3 km Calm Calm - N/A Rain Light Rain
1:54 AM 20.0 °C 19.0 °C 94% 1006.7 hPa 8.0 km Calm Calm - N/A Rain Rain
2:14 AM 19.0 °C 19.0 °C 100% 1006.7 hPa 6.4 km Calm Calm - N/A Rain Light Rain
2:34 AM 19.0 °C 19.0 °C 100% 1006.3 hPa 8.0 km Calm Calm - N/A Rain Light Rain
2:54 AM 20.0 °C 19.0 °C 94% 1006.3 hPa 8.0 km Calm Calm - N/A Rain Light Rain
3:15 AM 20.0 °C 19.0 °C 94% 1006.3 hPa 11.3 km WSW 7.4 km/h / 2.1 m/s - N/A Rain Light Rain
3:35 AM 19.0 °C 19.0 °C 100% 1006.0 hPa 8.0 km West 7.4 km/h / 2.1 m/s - N/A Rain Light Rain
3:55 AM 19.0 °C 19.0 °C 100% 1005.6 hPa 8.0 km Calm Calm - N/A Rain Rain
4:15 AM 19.0 °C 19.0 °C 100% 1005.6 hPa 8.0 km West 7.4 km/h / 2.1 m/s - N/A   Light Drizzle
4:35 AM 19.0 °C 19.0 °C 100% 1005.3 hPa 11.3 km West 14.8 km/h / 4.1 m/s - N/A   Overcast
4:55 AM 19.0 °C 18.0 °C 94% 1005.0 hPa 16.1 km WNW 11.1 km/h / 3.1 m/s - N/A   Overcast
5:15 AM 19.0 °C 17.0 °C 88% 1005.3 hPa 16.1 km WNW 13.0 km/h / 3.6 m/s - N/A   Overcast
5:35 AM 18.0 °C 17.0 °C 94% 1005.3 hPa 16.1 km WNW 13.0 km/h / 3.6 m/s - N/A   Mostly Cloudy
5:55 AM 18.0 °C 17.0 °C 94% 1005.0 hPa 16.1 km WNW 11.1 km/h / 3.1 m/s - N/A   Overcast
6:15 AM 18.0 °C 17.0 °C 94% 1005.3 hPa 16.1 km WNW 14.8 km/h / 4.1 m/s - N/A   Mostly Cloudy
6:36 AM 18.0 °C 17.0 °C 94% 1005.3 hPa 16.1 km WNW 9.3 km/h / 2.6 m/s - N/A   Mostly Cloudy
6:56 AM 17.0 °C 16.0 °C 94% 1005.3 hPa 16.1 km WNW 9.3 km/h / 2.6 m/s - N/A   Mostly Cloudy
7:16 AM 17.0 °C 16.0 °C 94% 1005.0 hPa 16.1 km WNW 5.6 km/h / 1.5 m/s - N/A   Scattered Clouds
7:36 AM 17.0 °C 16.0 °C 94% 1005.3 hPa 16.1 km WNW 9.3 km/h / 2.6 m/s - N/A   Scattered Clouds
7:56 AM 17.0 °C 16.0 °C 94% 1005.3 hPa 16.1 km West 9.3 km/h / 2.6 m/s - N/A   Clear
8:16 AM 17.0 °C 16.0 °C 94% 1005.3 hPa 11.3 km West 7.4 km/h / 2.1 m/s - N/A   Clear
8:36 AM 17.0 °C 16.0 °C 94% 1005.3 hPa 11.3 km WNW 9.3 km/h / 2.6 m/s - N/A   Clear
8:56 AM 17.0 °C 16.0 °C 94% 1005.6 hPa 11.3 km WNW 14.8 km/h / 4.1 m/s - N/A   Clear
9:16 AM 17.0 °C 16.0 °C 94% 1006.0 hPa 11.3 km WNW 13.0 km/h / 3.6 m/s - N/A   Clear
9:36 AM 17.0 °C 16.0 °C 94% 1006.0 hPa 16.1 km WNW 14.8 km/h / 4.1 m/s 25.9 km/h / 7.2 m/s N/A   Mostly Cloudy
9:57 AM 17.0 °C 16.0 °C 94% 1006.3 hPa 16.1 km WNW 13.0 km/h / 3.6 m/s - N/A   Mostly Cloudy
10:12 AM 17.0 °C 16.0 °C 94% 1006.3 hPa 16.1 km WNW 11.1 km/h / 3.1 m/s - N/A   Scattered Clouds
10:32 AM 17.0 °C 16.0 °C 94% 1006.3 hPa 16.1 km WNW 16.7 km/h / 4.6 m/s - N/A   Mostly Cloudy
10:52 AM 18.0 °C 15.0 °C 83% 1006.3 hPa 16.1 km WNW 14.8 km/h / 4.1 m/s - N/A   Overcast
11:12 AM 19.0 °C 16.0 °C 83% 1006.3 hPa 16.1 km WNW 18.5 km/h / 5.1 m/s - N/A   Mostly Cloudy
11:32 AM 19.0 °C 15.0 °C 78% 1006.3 hPa 16.1 km WNW 16.7 km/h / 4.6 m/s 27.8 km/h / 7.7 m/s N/A   Mostly Cloudy
11:52 AM 20.0 °C 15.0 °C 73% 1006.3 hPa 16.1 km NW 18.5 km/h / 5.1 m/s 25.9 km/h / 7.2 m/s N/A   Mostly Cloudy
12:12 PM 21.0 °C 15.0 °C 68% 1006.0 hPa 16.1 km NW 18.5 km/h / 5.1 m/s - N/A   Mostly Cloudy
12:32 PM 20.0 °C 14.0 °C 68% 1006.3 hPa 16.1 km NW 18.5 km/h / 5.1 m/s 27.8 km/h / 7.7 m/s N/A   Mostly Cloudy
12:52 PM 22.0 °C 14.0 °C 60% 1006.3 hPa 16.1 km NW 24.1 km/h / 6.7 m/s 29.6 km/h / 8.2 m/s N/A   Scattered Clouds
1:12 PM 21.0 °C 14.0 °C 64% 1006.7 hPa 16.1 km NW 31.5 km/h / 8.7 m/s 42.6 km/h / 11.8 m/s N/A   Scattered Clouds
1:33 PM 20.0 °C 14.0 °C 68% 1006.7 hPa 16.1 km NW 27.8 km/h / 7.7 m/s - N/A   Mostly Cloudy
1:53 PM 22.0 °C 13.0 °C 57% 1006.7 hPa 16.1 km NNW 24.1 km/h / 6.7 m/s 29.6 km/h / 8.2 m/s N/A   Scattered Clouds
2:13 PM 22.0 °C 12.0 °C 53% 1006.7 hPa 16.1 km North 22.2 km/h / 6.2 m/s - N/A   Scattered Clouds
2:33 PM 22.0 °C 13.0 °C 57% 1006.7 hPa 16.1 km NNW 22.2 km/h / 6.2 m/s 29.6 km/h / 8.2 m/s N/A   Scattered Clouds
2:53 PM 21.0 °C 12.0 °C 56% 1006.7 hPa 16.1 km NW 22.2 km/h / 6.2 m/s 37.0 km/h / 10.3 m/s N/A   Scattered Clouds
3:13 PM 22.0 °C 11.0 °C 50% 1006.7 hPa 16.1 km NW 20.4 km/h / 5.7 m/s 35.2 km/h / 9.8 m/s N/A   Clear
3:33 PM 21.0 °C 12.0 °C 56% 1006.7 hPa 16.1 km NW 14.8 km/h / 4.1 m/s 27.8 km/h / 7.7 m/s N/A   Clear
3:53 PM 22.0 °C 12.0 °C 53% 1006.7 hPa 16.1 km NNW 18.5 km/h / 5.1 m/s 27.8 km/h / 7.7 m/s N/A   Mostly Cloudy
4:13 PM 21.0 °C 11.0 °C 53% 1007.0 hPa 16.1 km NW 25.9 km/h / 7.2 m/s 35.2 km/h / 9.8 m/s N/A   Mostly Cloudy
4:34 PM 21.0 °C 10.0 °C 49% 1007.0 hPa 16.1 km WNW 20.4 km/h / 5.7 m/s 27.8 km/h / 7.7 m/s N/A   Clear
4:54 PM 22.0 °C 11.0 °C 50% 1007.0 hPa 16.1 km NW 16.7 km/h / 4.6 m/s 27.8 km/h / 7.7 m/s N/A   Scattered Clouds
5:14 PM 21.0 °C 9.0 °C 46% 1007.3 hPa 16.1 km West 16.7 km/h / 4.6 m/s - N/A   Scattered Clouds
5:34 PM 20.0 °C 10.0 °C 52% 1007.7 hPa 16.1 km WNW 14.8 km/h / 4.1 m/s - N/A   Scattered Clouds
5:54 PM 20.0 °C 9.0 °C 49% 1007.7 hPa 16.1 km WNW 22.2 km/h / 6.2 m/s - N/A   Mostly Cloudy
6:14 PM 19.0 °C 10.0 °C 56% 1008.0 hPa 16.1 km NW 18.5 km/h / 5.1 m/s 25.9 km/h / 7.2 m/s N/A   Mostly Cloudy
6:34 PM 19.0 °C 10.0 °C 56% 1008.0 hPa 16.1 km NW 16.7 km/h / 4.6 m/s - N/A   Mostly Cloudy
6:54 PM 19.0 °C 10.0 °C 56% 1008.4 hPa 16.1 km NW 14.8 km/h / 4.1 m/s - N/A   Overcast
7:14 PM 18.0 °C 11.0 °C 64% 1008.4 hPa 16.1 km NW 14.8 km/h / 4.1 m/s - N/A   Overcast
7:34 PM 18.0 °C 10.0 °C 59% 1008.7 hPa 16.1 km WNW 11.1 km/h / 3.1 m/s - N/A   Mostly Cloudy
7:54 PM 17.0 °C 11.0 °C 68% 1008.7 hPa 16.1 km WNW 11.1 km/h / 3.1 m/s - N/A   Mostly Cloudy
8:15 PM 17.0 °C 10.0 °C 63% 1009.0 hPa 16.1 km WNW 11.1 km/h / 3.1 m/s - N/A   Overcast
8:35 PM 17.0 °C 10.0 °C 63% 1009.4 hPa 16.1 km WNW 11.1 km/h / 3.1 m/s - N/A   Overcast
8:55 PM 17.0 °C 10.0 °C 63% 1009.4 hPa 16.1 km NW 14.8 km/h / 4.1 m/s - N/A   Overcast
9:15 PM 17.0 °C 10.0 °C 63% 1009.7 hPa 16.1 km NW 11.1 km/h / 3.1 m/s 16.7 km/h / 4.6 m/s N/A   Overcast
9:35 PM 16.0 °C 11.0 °C 72% 1010.0 hPa 16.1 km NW 11.1 km/h / 3.1 m/s - N/A   Overcast
9:55 PM 15.0 °C 11.0 °C 77% 1010.0 hPa 16.1 km NW 9.3 km/h / 2.6 m/s - N/A   Scattered Clouds
10:15 PM 14.0 °C 11.0 °C 82% 1010.4 hPa 16.1 km NW 9.3 km/h / 2.6 m/s - N/A   Clear
10:35 PM 14.0 °C 11.0 °C 82% 1010.4 hPa 16.1 km NW 9.3 km/h / 2.6 m/s - N/A   Clear
10:56 PM 13.0 °C 10.0 °C 82% 1010.7 hPa 16.1 km NW 7.4 km/h / 2.1 m/s - N/A   Clear
11:16 PM 13.0 °C 11.0 °C 88% 1010.7 hPa 16.1 km WNW 5.6 km/h / 1.5 m/s - N/A   Scattered Clouds
11:36 PM 14.0 °C 11.0 °C 82% 1010.7 hPa 16.1 km NW 5.6 km/h / 1.5 m/s - N/A   Overcast
11:56 PM 14.0 °C 11.0 °C 82% 1011.1 hPa 16.1 km NNW 5.6 km/h / 1.5 m/s - N/A   Overcast